Date,TemperatureHighF,TemperatureAvgF,TemperatureLowF,DewpointHighF,DewpointAvgF,DewpointLowF,HumidityHigh,HumidityAvg,HumidityLow,PressureMaxIn,PressureMinIn,WindSpeedMaxMPH,WindSpeedAvgMPH,GustSpeedMaxMPH,PrecipitationSumIn
2013-1-2,28.6,17.2,5.1,24.7,13.3,1.3,91,84,78,30.32,29.91,6,1,10,0.00
2013-1-3,23.7,14.0,2.5,17.6,9.5,-1.0,86,82,76,30.37,30.03,6,1,14,0.00
2013-1-4,27.8,20.0,11.7,19.3,14.2,8.8,89,78,67,30.15,30.04,3,0,7,0.00
2013-1-5,16.6,10.7,4.2,12.2,6.7,0.9,90,83,72,30.21,29.99,6,1,8,0.00
2013-1-6,17.3,13.7,7.8,13.6,9.7,3.5,87,84,79,30.26,29.84,10,1,11,0.00
2013-1-7,36.1,26.3,15.7,26.3,20.4,12.3,87,79,66,29.95,29.80,10,2,16,0.00
2013-1-8,34.4,26.0,11.9,28.0,21.6,8.8,92,84,72,29.93,29.70,9,1,15,0.00
2013-1-9,32.4,26.4,23.0,25.4,20.6,17.8,84,78,65,30.28,29.88,10,2,18,0.00
2013-1-10,43.6,35.4,27.5,32.9,29.2,23.6,94,79,56,30.06,29.57,11,4,17,0.02
2013-1-11,35.2,25.0,11.6,33.9,23.3,8.7,96,93,88,29.56,29.47,7,2,14,0.00
2013-1-12,10.9,4.2,-0.3,8.1,0.3,-4.5,88,84,79,30.27,29.57,11,4,15,0.00
2013-1-13,9.0,3.4,-2.8,3.1,-1.5,-7.2,84,80,74,30.35,30.23,5,1,8,0.00
2013-1-14,13.1,6.4,-1.1,7.3,1.7,-5.3,86,81,73,30.44,30.28,3,0,8,0.00
2013-1-15,29.5,14.7,2.2,27.7,9.9,-1.3,93,81,67,30.27,29.62,7,2,10,0.02
2013-1-16,35.7,12.6,-2.0,33.6,6.0,-11.0,94,75,58,30.39,29.61,7,2,13,0.00
2013-1-17,12.6,8.5,0.5,8.8,2.0,-9.4,86,74,62,30.51,30.17,5,1,10,0.00
2013-1-18,28.8,22.7,12.9,23.7,18.7,9.5,89,84,80,30.17,29.72,9,1,11,0.00
2013-1-19,35.5,13.5,-1.6,30.9,8.9,-7.4,88,81,75,30.44,29.71,11,4,21,0.00
2013-1-20,3.5,-1.8,-10.2,-2.1,-8.4,-16.7,80,73,67,30.50,30.44,7,2,14,0.00
2013-1-21,-2.7,-8.7,-13.2,-10.6,-15.4,-19.4,76,71,66,30.50,30.42,10,2,11,0.00
2013-1-22,8.7,-1.1,-11.5,4.1,-7.3,-16.7,81,74,67,30.48,30.26,3,0,7,0.00
2013-1-23,8.9,1.4,-6.0,4.5,-4.5,-15.0,85,76,64,30.67,30.25,11,4,16,0.00